Location: Newark
(44.3100°N, 0.7769°W)
Time: 01:53:55
(UTC+00:00)

Envisat - Pass Details

Date: 26 November 2019
Orbit: 764 x 766 km, 98.1° (Epoch: 09 December)

Event Time Altitude Azimuth Distance (km) Brightness Sun altitude
Rises 17:55:03 0° 164° (SSE) 3,218 6.2 -15.3°
Reaches altitude 10° 17:57:21 10° 164° (SSE) 2,296 5.5 -15.7°
Maximum altitude 18:02:25 88° 76° (ENE) 772 2.9 -16.6°
Drops below altitude 10° 18:07:32 10° 347° (NNW) 2,312 5.5 -17.5°
Sets 18:09:51 0° 348° (NNW) 3,242 6.3 -17.9°
